Location: Smithers
(54.7670°N, 127.1670°W)
Time: 09:34:52
(UTC-07:00)

Daily predictions for brighter satellites

Satellite Brightness Start Highest point End
(mag) Time Altitude Azimuth Time Altitude Azimuth Time Altitude Azimuth
Cosmos 2181 Rocket 4.1 22:32:34 10° S 22:38:53 76° E 22:45:08 10° NNE
USA 229 DEB 3.9 22:32:08 10° NW 22:39:15 78° SW 22:46:30 10° SE
USA 229 3.9 22:32:15 10° NW 22:39:21 78° SW 22:46:36 10° SE
Cosmos 1626 Rocket 4.2 22:37:08 10° SSE 22:41:07 37° E 22:45:08 10° NNE
Cosmos 2360 Rocket 3.8 22:36:29 10° NNW 22:41:21 28° NNE 22:46:12 10° E
SL-27 R/B 4.4 22:39:02 10° SW 22:42:26 36° NW 22:45:49 10° NNE
Cosmos 1953 3.8 22:39:20 10° N 22:42:48 26° ENE 22:46:14 10° ESE
Cosmos 1980 Rocket 2.3 22:37:30 10° NNW 22:43:14 89° NE 22:48:53 10° SSE
Cosmos 2228 3.4 22:39:30 10° NNW 22:43:47 63° W 22:48:01 10° S
ATLAS 2AS CENTAUR R/B 4.1 22:36:42 10° WNW 22:44:34 47° N 22:52:15 10° E
NOSS 3-1 (A) 4.3 22:38:37 10° NW 22:45:41 68° NNE 22:53:44 10° ESE
Helios 1B rocket 4.3 22:43:41 10° N 22:47:27 34° WNW 22:51:12 10° SW
Cosmos 1766 3.4 22:45:24 10° N 22:49:18 60° ENE 22:53:09 10° SSE
ARGOS 3.7 22:45:50 10° S 22:51:10 58° W 22:56:33 10° NNW
USA 234 3.6 22:44:42 10° E 22:51:15 74° N 22:57:46 10° W
PSLV R/B 4.1 22:49:35 10° SE 22:52:08 32° ENE 22:54:43 10° N
Cosmos 2322 Rocket 2.8 22:49:29 10° NNW 22:55:06 53° NE 23:00:40 10° SE
Meteor 1-4 Rocket 3.3 22:59:10 10° NNW 23:02:41 49° W 23:06:07 10° S
Landsat 7 3.9 22:58:21 10° SSE 23:03:07 81° WSW 23:07:55 10° NNW
Cosmos 1470 4.4 23:00:48 10° N 23:04:08 24° ENE 23:07:26 10° ESE
SME Rocket 4.5 23:00:51 10° ESE 23:04:36 27° ENE 23:07:51 10° N
H-2A R/B 2.4 23:00:13 10° S 23:05:10 64° WSW 23:10:18 10° NNW
Lacrosse 5 rocket 1.6 23:00:59 10° WNW 23:05:37 79° SSW 23:10:16 10° ESE
SL-8 Rocket 4.5 22:59:27 10° NNW 23:05:38 62° W 23:11:49 10° S
Cosmos 1892 Rocket 4.5 23:07:33 10° SSW 23:11:51 50° WNW 23:16:10 10° N
Cosmos 2366 rocket 4.2 23:06:32 10° NNW 23:12:41 71° W 23:18:47 10° S
Cosmos 1602 Rocket 3.5 23:12:32 10° S 23:16:51 75° E 23:21:11 10° NNE
Cosmos 1805 3.3 23:13:53 10° N 23:17:48 68° ENE 23:21:22 12° SSE
Terra 1.9 23:13:22 10° SSE 23:18:08 82° WSW 23:22:57 10° NNW
Cosmos 2333 Rocket 4.5 23:16:00 10° NNW 23:20:20 21° NNE 23:24:38 10° ENE
Cosmos 2219 Rocket 4.3 23:18:56 10° NNW 23:23:24 23° NNE 23:27:50 10° ENE
Cosmos 389 Rocket 2.7 23:20:14 10° N 23:23:40 55° ENE 23:26:33 14° SSE
deb Chang Zheng 4 4.0 23:20:57 10° NNE 23:25:09 46° E 23:29:07 11° S
Cosmos 1758 3.4 23:22:11 10° N 23:26:12 67° ENE 23:29:39 13° SSE
Cosmos 2082 Rocket 2.2 23:21:30 10° SSW 23:27:12 85° ESE 23:32:53 10° NE
DMSP B5D2-2 4.1 23:22:17 10° NNE 23:27:37 73° ESE 23:32:53 10° S
COSMOS 2487 3.5 23:24:11 10° SW 23:27:39 49° WNW 23:31:10 10° NNE
Cosmos 1269 Rocket 4.2 23:22:56 10° S 23:28:04 54° ESE 23:33:15 10° NNE
Cosmos 1331 Rocket 4.0 23:25:16 10° NNW 23:30:30 80° ENE 23:35:07 13° SSE
ISS -3.6 23:30:48 10° WSW 23:34:00 48° S 23:37:12 10° E
Iridium 2 3.7 23:30:29 10° N 23:34:19 80° W 23:37:46 12° S
Cosmos 1110 Rocket 4.0 23:29:13 10° NNW 23:34:31 88° WSW 23:39:08 14° SSE
Cosmos 1048 Rocket 4.1 23:29:44 10° S 23:34:48 61° ESE 23:39:57 10° NNE
Cosmos 1697 Rocket 4.1 23:32:48 10° NW 23:37:32 29° WSW 23:42:15 10° SSW
Cosmos 1302 Rocket 4.3 23:34:32 10° NNW 23:39:47 62° ENE 23:44:33 13° SE
CARTOSAT-1 4.3 23:38:18 10° S 23:42:30 49° W 23:46:43 10° NNW
Spot 4 3.9 23:39:52 13° SSE 23:44:08 84° WSW 23:49:01 10° NNW
Cosmos 2237 Rocket 4.5 23:40:19 10° NNW 23:44:35 21° NNE 23:48:49 10° ENE
Lacrosse 5 3.4 23:43:44 14° SSE 23:45:28 16° SE 23:48:34 10° E
Cosmos 1271 Rocket 3.6 23:43:40 10° NNW 23:47:23 43° W 23:50:59 11° SSW
ATLAS CENTAUR R/B 1.4 23:44:45 10° NW 23:48:23 53° SW 23:51:02 17° SSE
SL-16 R/B 2.2 23:42:42 10° NW 23:48:26 81° WSW 23:53:16 15° SSE
IGS 5A 4.3 23:45:32 10° S 23:49:27 43° W 23:53:29 10° NNW
Cosmos 1842 3.3 23:49:30 11° SSW 23:53:17 87° W 23:57:17 10° N
DELTA 2 DEB (DPAF) 4.2 23:50:05 15° S 23:53:51 77° WSW 23:58:23 10° NNW
Cosmos 1544 4.0 23:51:53 10° NNW 23:55:21 42° W 23:58:28 12° SSW
Cosmos 1733 3.3 23:52:06 10° N 23:55:56 69° ENE 23:58:46 17° SSE
